User: anonymous   Login
Location: Bu�n Treun
(12.1333°N, 108.3167°E)
Time: 09:51:02
(UTC+00:00)
Language:

Cosmos 2333 Rocket - Orbit

View from above orbital plane
View from above orbital plane
View from above satellite
View from above satellite

Ground track
Ground track

The orbit data is extracted from the following two-line orbital elements,

1 24298U 96051B   20269.86298052 -.00000142 +00000-0 -50192-4 0  9995
2 24298 070.8409 058.8585 0018078 210.3210 149.6866 14.12495450240536
Epoch (UTC): 25 September 2020 20:42:41
Eccentricity: 0.0018078
inclination: 70.8409°
perigee height: 838 km
apogee height: 864 km
right ascension of ascending node: 58.8585°
argument of perigee: 210.3210°
revolutions per day: 14.12495450
mean anomaly at epoch: 149.6866°
orbit number at epoch: 24053

The dashed part of the orbit path shows where the satellite is in the earth's shadow,  

DLR